Weather in Ushkovo

Russia / Saint-Petersburg and Leningrad Oblast     60°13′01″N   29°37′05″E
temp.,
°C
wind,
m/s
gust,
m/s
humid.,
%
clouds,
%
prec.,
mm/h
press.,
hPa
HPBL,
m
6 march, sat
sat600:00−8nw25910 0.0 1016159
03:00−9wnw24940 0.0 101790
06:00−9w24940 0.0 101595
09:00−7sw37916 0.0 1014287
12:00−4sw6117864 0.0 1011792
15:00−4ssw7148382 0.2 1005911
18:00−2sw91695100 1.9 9981161
21:00−1wsw91797100 7.5 9921028
7 march, sun
sun700:00−1nw71387100 2.6 990931
03:00−8wnw358571 2.6 990108
06:00−7ssw129465 0.5 98969
09:00−8wnw497682 2.3 989409
12:00−6nnw347367 0.3 990689
15:00−6n356983 0.9 993962
18:00−7n4983100 0.2 995699
21:00−10nnw4118864 0.2 998427
8 march, mon
mon800:00−9n5119098 0.1 1001585
03:00−11n5118899 0.1 1005653
06:00−12n5109095 0.1 1007478
09:00−15n599097 0.1 1011381
12:00−12n478475 0.0 1013442
15:00−10n478074 0.0 1015653
18:00−12n378588 0.0 1016508
21:00−15n269458 0.0 1017163
9 march, tue
tue900:00−17n23930 0.0 101952
03:00−17n22950 0.0 101927
06:00−18ne11969 0.0 101920
09:00−15ese249155 0.0 1019186
12:00−13ese4686100 0.0 1019467
15:00−12ese4779100 0.0 1020500
18:00−14e487756 0.0 1020339
21:00−18e498728 0.0 1021234
10 march, wed
wed1000:00−18e410860 0.0 1023249
03:00−18e39870 0.0 1024212
06:00−19e37860 0.0 1024175
09:00−17ese37791 0.0 1025190
12:00−12ese357037 0.0 1026302
15:00−9ese366419 0.0 1025580
18:00−11ese37780 0.0 1023340
21:00−14ese410880 0.0 1023244